Pos.Doss.NomPrenomTempsVit.Moy.Allure Pos. cat�gCat�gorie Points Club
1 1932 RENETTE WILLIAM 00:19:36 15.31 00:03:55 ? VANESSE
2 1925 DETROZ JULIEN 00:21:42 13.82 00:04:20 ? RED RUNNERS
3 1913 FRANCOIS ARTHUR 00:21:55 13.69 00:04:23 ?
4 1839 MARQUET ANTOINE 00:22:07 13.56 00:04:25 ? OCAN
5 1828 HOURIE LOIC 00:22:28 13.35 00:04:30 ? OUPEYE RFCL
6 1952 LOUIS VLASSIS FRANCOIS 00:22:31 13.32 00:04:30 ? FORT AVENTURE
7 1817 BINET AMANDINE 00:23:07 12.98 00:04:37 ? RFCL
8 1874 DE FLIRIAN MATTEO 00:23:51 12.58 00:04:46 ?
9 1836 NOIRHOMME PAUL 00:24:08 12.43 00:04:50 1Garconss 12 � 15 ans 1000 RFCL
10 1951 VERA MORALES JULIAN 00:25:03 11.98 00:05:01 ? JIA
11 151 WEYNAND CELINA 00:25:08 11.94 00:05:02 1Filles 12 � 15 ans 978 AC EIFEL/SC BTGENBACH
12 404 KERCKHOVE LUCA 00:25:18 11.86 00:05:04 2Garconss 12 � 15 ans 957 RFCL ATHLETISME
13 71 DEBATTY OLIVIA 00:25:26 11.8 00:05:05 2Filles 12 � 15 ans 935 SERAING ATHLETISME
14 1841 WEYNAND GREGORY 00:25:37 11.71 00:05:07 ?
15 1911 BONHOMME LAURENT 00:27:40 10.84 00:05:32 ? OMEGA NUTRITION
16 83 GUISSART CLMENT 00:28:10 10.65 00:05:38 3Garconss 12 � 15 ans 913 PAS DE CLUB
17 1822 NOIRHOMME QUENTIN 00:28:20 10.59 00:05:40 ?
18 1914 BEAUJEAN AXEL 00:28:30 10.53 00:05:42 ? A CLUB HERSTAL
19 1921 DEWIL JEAN 00:29:35 10.14 00:05:55 ? JIA
20 1924 MOREAU KEVIN 00:29:48 10.07 00:05:58 ? VERV PEPINS MUSTANGS
21 1827 TAFNIEZ MIKE 00:30:22 9.88 00:06:04 ? VERV PEPINS MUSTANGS
22 1815 KONINGS CLAUDE 00:30:45 9.76 00:06:09 ?
23 1912 DECROUPET LUC 00:31:27 9.54 00:06:17 ? ERTKB
24 3 HOMBOURG SHANA 00:31:45 9.45 00:06:21 ?
25 1869 WILLET ZELLIE 00:32:10 9.33 00:06:26 3Filles 12 � 15 ans 891
26 1873 DIO OLIVIA 00:32:13 9.31 00:06:27 4Filles 12 � 15 ans 870 JIA
27 1832 RENARD FLORENCE 00:32:37 9.2 00:06:31 ?
28 1922 MATTHIEU CYRIL 00:32:37 9.2 00:06:31 ? VERV PEPINS MUSTANGS
29 17 ODEURS LIONEL 00:32:53 9.12 00:06:35 4Garconss 12 � 15 ans 848 LES COREUS D AWANS
30 1875 NOIRHOMME CELESTINE 00:33:12 9.04 00:06:38 ?
31 1835 BARATTO NATHAN 00:33:27 8.97 00:06:41 5Garconss 12 � 15 ans 826 VERV; PEPINS; MUSTANGS
32 1917 BLOCK ALIN 00:33:31 8.95 00:06:42 ?
33 1859 BERWART PERRINE 00:34:19 8.74 00:06:52 ?
34 51 HU LIN 00:34:22 8.73 00:06:52 ? JCPMF ROCOURT
35 80 HACKING ROMAIN 00:35:57 8.34 00:07:11 6Garconss 12 � 15 ans 804 PAS DE CLUB
36 1879 BOURGUIGNON VIRGINIE 00:36:42 8.17 00:07:20 ?
37 82 HACKING ETIENNE 00:37:14 8.06 00:07:27 ? PAS DE CLUB
38 1927 MILAZZO MANUEL 00:38:04 7.88 00:07:37 ?
39 1916 SCHELLENS NATHALIE 00:38:32 7.79 00:07:42 ?
40 1918 LECHANTRE VALERIE 00:38:37 7.77 00:07:43 ?
41 120 LACROSSE MURIELLE 00:39:38 7.57 00:07:56 ? PAS DE CLUB
42 1960 RONCALI YANNICK 00:39:38 7.57 00:07:56 ?
43 56 ODEURS JEAN-CLAUDE 00:42:57 6.98 00:08:35 ? LES COREUS D AWANS
44 49 HEYNS HENRI 00:43:32 6.89 00:08:42 ? CJPL
45 269 JULIN LOLA 00:51:03 5.88 00:10:13 5Filles 12 � 15 ans 783 ATHLETISME MEHAGNE CLUB
46 1710 FOURNY PHILIPPE 00:52:42 5.69 00:10:32 ? SERAING RUNNERS
47 1711 TONACHELLA CLAUDIA 00:52:44 5.69 00:10:33 ? SERAING RUNNERS
Jogging de Banneux 2022
Distance : 5.0 kms
47 coureurs